GFSNW_sfc_30mbdewp_246.txt.gz
Dewpoint
43 44 44 45 43 43 40 35 29 38 38 30 30 19 26 20 17 17 15 16 15 13 14 19 15 13 16 24 22 18 22 22 21 23 25 22 25 27 28 21 19 22 24 25
44 44 44 45 44 43 38 33 33 37 35 26 26 26 24 21 16 15 16 13 14 15 14 16 17 18 21 22 21 22 24 21 15 13 16 16 15 17 26 27 26 19 14 21
41 44 44 45 45 44 35 34 29 29 33 32 26 27 23 20 23 19 17 14 16 16 16 19 17 19 20 21 19 23 25 22 18 15 16 17 16 16 15 22 15 12 16 16
41 44 44 45 45 44 35 33 26 25 19 20 30 28 24 20 16 21 18 15 15 16 17 19 19 19 19 19 20 19 19 17 19 17 17 18 16 13 12 13 16 16 12 9
41 44 44 44 45 43 33 31 27 32 26 28 26 26 23 21 21 18 17 16 17 17 15 16 17 18 17 17 19 19 20 14 17 15 16 16 14 14 13 11 9 8 11 19
40 43 44 44 45 38 31 35 33 28 27 26 23 22 21 21 22 21 19 17 17 17 18 20 20 19 19 18 18 17 17 15 13 10 15 15 6 13 13 18 22 19 19 19
40 43 44 44 45 41 37 37 32 24 19 24 25 24 22 23 24 20 19 18 16 18 21 21 22 22 23 22 21 21 17 16 15 10 13 -2 7 16 19 20 18 17 16 19
40 42 44 44 44 45 40 39 33 30 25 26 25 25 24 24 22 19 16 18 20 22 22 16 15 12 14 14 18 17 21 14 10 12 14 13 16 24 21 20 16 15 15 20
39 42 43 44 44 45 42 38 39 34 26 24 28 24 24 21 20 20 22 25 24 25 23 19 14 10 13 14 15 18 19 18 14 16 11 4 17 20 20 21 18 18 17 20
40 40 42 43 43 44 41 37 39 34 27 28 26 24 23 24 23 21 23 24 25 24 20 16 16 15 18 15 11 10 13 16 13 12 14 16 19 19 21 15 17 18 19 19
40 39 41 42 43 43 41 36 40 33 29 29 30 30 28 27 24 21 24 22 23 23 19 19 19 19 18 20 17 16 13 13 15 16 14 11 21 17 15 18 21 21 19 18
40 39 41 42 43 43 40 34 40 40 33 29 35 33 33 31 29 27 26 24 25 23 20 22 22 21 19 20 14 17 10 14 14 16 15 19 20 20 21 22 21 22 22 23
40 39 40 41 42 42 39 34 39 37 34 31 29 29 29 33 32 32 26 28 27 28 29 26 24 21 20 15 16 16 16 20 16 17 16 18 19 20 23 25 27 29 30 29
40 39 40 41 41 41 38 32 36 34 29 22 22 29 29 30 31 31 30 29 30 31 29 28 25 22 22 19 17 20 21 20 17 17 18 19 22 23 26 29 31 29 29 29
40 39 39 40 40 40 37 34 35 35 27 22 25 27 25 24 25 30 31 29 28 27 26 26 25 26 24 22 23 20 20 18 19 17 18 21 24 27 31 31 29 30 30 29
39 39 38 39 39 38 34 31 31 33 32 24 16 26 25 27 26 29 30 29 29 27 25 26 26 26 22 20 20 21 21 23 22 21 23 23 28 32 29 29 30 30 30 30
39 38 38 38 39 34 29 25 29 33 33 26 22 23 27 27 29 30 28 30 29 28 29 27 24 24 25 24 19 18 18 23 22 23 24 27 27 26 29 29 29 30 31 30
39 38 38 38 36 35 32 36 39 35 31 30 22 21 25 30 27 27 31 29 28 29 27 27 25 25 23 20 20 20 20 21 22 25 28 29 27 29 29 30 30 30 29 29
38 38 37 36 35 32 34 39 37 35 29 22 23 20 18 30 29 29 29 27 23 26 25 24 23 21 20 21 21 21 22 23 30 27 26 27 27 28 30 31 31 29 29 29
38 37 32 27 33 38 35 34 30 29 29 28 23 25 23 28 28 26 25 27 22 21 23 25 21 20 21 20 22 22 23 25 30 28 25 26 27 29 31 31 30 29 30 30
34 30 28 34 37 32 27 24 22 23 22 25 25 23 22 29 25 25 27 25 25 21 22 20 22 23 24 27 24 22 26 32 31 28 28 28 30 31 30 29 29 29 31 30
31 34 36 33 28 26 21 18 21 21 17 22 22 22 21 22 30 27 29 25 26 20 25 23 22 24 32 33 29 25 30 30 30 31 31 32 31 30 29 28 29 29 30 31
28 26 27 22 23 18 17 14 17 18 20 22 23 21 20 22 27 26 22 20 18 25 23 21 22 32 33 34 34 34 34 32 31 30 31 31 31 31 30 29 29 30 30 31
23 21 19 20 17 18 18 17 17 21 20 22 23 20 22 27 26 22 18 20 22 18 17 19 30 33 34 35 36 35 34 33 32 31 31 31 31 30 29 29 30 31 31 32
21 20 15 19 21 20 21 20 23 28 27 25 23 27 26 24 21 23 22 21 18 19 18 28 31 32 31 31 30 30 30 30 30 31 31 31 30 29 29 29 30 32 33 32
23 21 20 22 19 23 24 27 30 34 29 30 30 26 24 21 23 23 20 18 16 24 27 29 28 29 30 28 26 24 26 28 25 25 27 29 29 29 29 29 29 31 33 32
22 20 24 23 20 21 23 25 27 35 31 28 29 24 22 27 23 22 24 21 25 27 28 28 27 24 24 24 24 24 24 21 21 23 23 22 24 26 28 29 29 30 32 33

GFSNW_sfc_30mbdewp_249.txt.gz
Dewpoint
43 43 44 45 45 44 38 34 27 38 38 31 28 23 26 24 17 18 15 15 15 14 13 17 17 13 18 23 23 20 20 23 18 19 23 17 24 18 25 20 19 19 20 21
41 43 44 45 45 43 36 31 32 36 34 22 24 24 27 21 16 15 15 14 14 15 14 16 17 17 22 21 19 21 23 20 13 5 10 14 17 18 17 26 26 18 14 18
41 42 43 44 45 44 36 32 30 30 32 30 25 24 22 18 22 19 17 13 15 16 15 19 17 19 20 21 20 21 22 21 17 13 14 17 17 18 14 19 16 17 17 16
41 42 42 44 45 45 35 32 28 29 24 27 30 27 25 21 18 22 19 15 15 15 16 18 18 19 19 19 23 19 19 14 19 16 17 17 17 14 15 12 12 12 18 19
41 41 41 43 44 44 33 32 24 30 24 21 29 28 24 21 19 20 17 16 16 17 14 15 15 18 17 16 19 17 20 13 16 13 13 16 14 15 20 20 19 19 19 18
41 41 41 43 43 41 31 33 32 29 26 25 24 24 24 23 22 20 19 19 17 16 17 20 20 20 20 18 17 17 17 15 13 7 15 14 9 15 19 15 17 19 16 19
41 41 41 43 43 41 32 35 31 26 23 25 22 24 23 22 24 18 20 19 17 18 22 21 22 19 19 23 22 20 16 16 15 9 11 -2 9 16 20 15 14 15 15 19
41 41 41 42 43 43 38 38 32 25 20 24 25 26 25 24 25 26 21 18 19 23 21 17 11 9 12 10 17 21 20 16 9 11 13 11 20 21 20 18 17 17 16 18
41 40 41 42 43 43 40 38 38 31 25 24 26 25 25 22 20 21 23 24 26 24 21 15 9 5 13 13 15 20 21 18 13 15 9 5 15 18 20 22 18 18 19 18
41 41 40 42 43 43 42 39 38 32 26 26 27 25 23 23 22 20 24 23 23 24 18 13 13 12 18 14 12 10 15 15 13 11 12 14 18 18 20 13 14 19 20 21
41 41 40 42 43 43 41 36 39 33 27 27 30 29 26 25 24 21 24 23 23 22 17 15 16 17 19 20 17 16 14 13 14 14 13 10 20 17 14 16 20 22 23 23
41 41 40 41 43 42 40 34 40 37 30 28 35 33 32 29 26 25 26 22 23 23 18 20 20 22 21 20 16 17 13 14 12 16 15 18 21 19 19 22 23 24 26 28
41 40 40 41 43 42 39 35 39 36 33 30 30 30 32 34 32 31 24 27 28 27 27 24 22 19 19 15 16 15 16 20 17 16 16 16 17 18 22 24 28 30 30 30
41 40 40 41 42 42 37 35 37 33 29 24 23 28 29 30 32 32 29 29 30 31 29 25 23 19 22 18 17 17 16 19 17 18 17 18 20 22 24 28 30 30 30 29
41 40 39 41 41 42 35 35 36 33 26 22 22 26 26 27 31 31 30 29 28 27 27 27 24 25 24 22 23 21 21 18 18 16 18 18 20 24 29 31 29 30 29 29
40 39 39 40 41 38 36 32 32 34 30 23 13 24 25 27 27 30 30 29 28 26 26 26 26 28 22 19 19 21 21 21 21 19 21 23 24 25 29 29 29 29 30 30
40 39 40 40 40 38 30 27 30 35 31 23 16 20 26 28 30 30 29 30 29 27 26 25 24 24 25 22 18 18 20 22 24 24 24 22 26 27 29 29 29 30 30 30
39 39 40 41 38 35 31 36 37 34 30 27 20 18 25 30 26 25 30 28 28 29 27 27 26 25 24 21 21 21 20 21 21 20 22 24 27 28 28 30 31 30 29 29
38 39 41 38 35 32 34 39 36 35 26 22 22 19 20 29 28 29 28 27 25 26 26 25 24 23 20 20 20 21 22 21 23 26 27 27 26 27 29 31 30 29 28 28
40 38 32 27 33 38 36 34 31 31 30 27 22 24 24 27 27 24 25 24 21 20 22 25 22 20 21 21 22 22 21 23 24 26 26 26 26 28 30 30 28 27 28 29
34 30 27 34 38 33 27 24 22 24 22 24 24 23 26 29 23 23 24 23 24 19 22 20 20 20 23 25 24 21 22 23 29 30 28 28 29 29 28 28 28 29 28 29
32 33 35 32 29 26 19 19 21 20 16 23 22 22 25 27 30 27 27 24 25 19 25 21 20 24 31 33 29 24 25 30 29 30 31 30 30 30 30 29 29 28 29 29
30 27 27 24 24 18 15 13 16 18 20 23 24 19 21 26 29 26 26 23 21 25 22 20 22 31 33 33 32 31 31 30 30 30 30 30 31 31 30 28 29 29 30 31
22 23 19 17 17 17 17 14 14 19 22 23 20 19 19 26 24 23 19 21 23 20 18 19 29 33 34 35 34 33 33 33 32 31 31 31 30 30 30 29 28 28 29 31
20 18 12 18 19 20 21 19 22 27 25 22 24 26 25 25 21 23 21 20 18 18 17 27 31 32 34 33 33 32 32 32 31 31 30 30 30 29 29 27 28 28 29 31
22 21 18 22 20 22 22 22 30 28 25 26 27 24 20 20 20 21 19 18 17 22 27 29 31 31 32 32 32 31 31 26 23 23 23 22 21 22 23 26 26 26 28 31
21 20 23 22 21 22 26 28 31 29 24 23 27 22 19 23 22 21 21 20 24 27 28 29 30 30 30 28 25 23 22 21 20 20 20 22 24 25 25 26 27 28 29 31

GFSNW_sfc_30mbdewp_252.txt.gz
Dewpoint
41 41 43 43 45 44 38 32 23 37 38 29 27 22 25 26 18 19 14 14 14 13 13 16 17 13 16 22 20 19 21 24 17 16 21 16 21 18 17 19 19 19 20 18
41 41 43 44 44 43 34 31 32 35 34 18 22 25 26 22 16 15 15 16 15 15 14 14 18 17 22 21 20 18 20 19 12 3 6 14 16 18 17 24 25 18 11 15
42 41 43 43 44 44 37 32 29 30 31 28 22 21 23 20 22 16 16 13 15 16 15 18 17 18 20 21 20 22 20 19 16 11 13 16 15 15 16 17 14 17 19 21
43 41 42 43 44 44 37 32 30 29 25 26 25 24 20 19 19 20 19 16 15 15 14 18 17 19 19 19 23 19 18 14 17 18 17 16 16 16 19 14 14 14 19 20
43 42 41 43 43 44 37 31 28 28 23 27 25 27 25 20 20 20 18 16 16 17 15 15 14 17 18 16 19 17 20 12 15 11 15 16 15 19 17 19 19 19 19 19
43 42 42 42 43 42 35 31 33 29 26 25 25 24 26 24 21 22 19 18 17 17 17 17 18 20 20 18 18 17 16 15 13 5 12 11 10 14 16 14 17 18 17 18
42 42 42 42 42 42 31 32 32 27 22 24 24 23 25 24 23 19 21 21 18 18 22 21 21 18 18 20 21 20 17 16 14 9 10 3 10 18 18 14 15 16 16 17
42 42 42 41 42 42 35 37 31 26 19 25 25 24 25 24 26 21 20 20 20 22 20 18 13 7 13 12 17 22 19 16 9 11 12 10 20 18 19 19 17 17 17 18
42 42 42 41 41 42 38 37 37 30 23 20 26 25 25 22 23 23 23 24 26 23 19 14 8 -2 10 10 16 22 21 18 12 13 10 3 9 18 19 22 16 19 19 20
42 42 42 41 41 42 40 37 38 31 25 26 27 24 25 24 22 22 23 23 23 23 17 14 12 9 18 12 12 15 16 14 11 10 11 13 16 18 19 13 12 18 21 22
43 42 42 40 41 42 41 37 39 35 27 26 29 28 25 24 23 21 24 22 23 20 17 15 14 15 18 18 17 15 13 12 13 12 12 10 19 16 13 15 17 20 23 25
42 42 41 40 41 42 41 36 39 36 30 28 34 32 32 29 25 25 26 22 23 23 18 18 18 20 21 20 13 19 15 15 12 14 13 17 20 17 17 20 21 23 26 29
41 41 40 38 41 42 40 36 39 37 33 30 31 29 32 34 30 29 24 26 26 24 24 21 21 18 20 17 17 15 16 19 16 16 16 18 19 19 19 23 25 30 30 29
40 41 40 38 41 41 39 37 38 34 31 27 23 28 29 31 33 31 29 29 31 30 28 23 21 17 22 17 17 16 16 20 17 18 18 18 17 19 22 25 31 30 30 29
42 41 40 39 40 42 37 38 37 33 26 22 22 26 26 28 32 31 30 30 29 28 26 25 22 24 22 22 22 20 20 16 16 13 17 17 18 20 25 29 30 29 30 29
42 40 39 39 40 40 36 33 35 32 28 22 14 23 25 28 31 31 29 29 28 26 26 25 26 27 23 17 19 21 21 22 20 18 20 21 21 25 27 29 29 29 30 30
41 40 39 40 41 39 32 28 33 33 30 23 16 18 26 29 30 30 30 30 27 26 25 24 24 25 24 20 18 17 20 21 23 22 22 21 23 24 29 29 30 31 30 30
40 39 40 40 40 36 33 36 35 32 27 24 16 19 26 29 26 27 29 29 29 28 26 26 24 24 23 20 21 20 18 20 22 24 25 22 27 28 29 31 31 29 29 28
39 40 41 39 34 32 35 38 35 33 26 21 21 20 21 29 27 28 28 29 25 27 26 25 24 22 21 20 20 21 22 21 20 22 22 24 26 27 29 30 28 26 27 28
41 38 33 28 33 38 34 32 31 30 28 25 18 23 25 27 26 25 25 24 21 20 22 25 23 21 22 22 23 22 21 23 23 26 26 26 26 28 28 27 27 27 27 28
35 29 28 35 36 30 28 25 23 24 22 24 22 23 26 29 22 23 23 22 22 18 20 20 19 19 21 23 22 21 22 22 24 28 27 27 27 28 27 27 28 28 28 28
32 34 36 34 30 26 20 20 22 20 16 23 20 22 27 28 28 23 25 21 23 17 24 20 18 22 28 33 31 31 24 23 27 29 29 28 28 29 28 28 28 28 28 28
30 28 28 24 25 17 14 13 16 17 20 23 23 23 27 29 29 27 25 23 20 25 21 18 19 30 32 30 28 28 29 29 30 30 29 30 30 31 30 29 28 28 28 28
24 23 19 16 16 16 15 14 15 19 22 22 21 21 22 27 25 24 20 22 23 18 17 17 24 32 33 33 32 30 30 30 30 30 30 30 29 28 28 28 27 25 26 27
19 17 12 17 18 20 19 19 23 25 24 20 21 24 26 25 21 22 20 20 18 19 16 22 31 34 33 33 32 33 33 33 33 30 28 26 25 24 24 24 25 26 25 25
21 20 18 22 18 20 20 25 25 24 22 22 25 22 19 20 20 21 18 18 15 18 26 31 32 32 32 32 33 33 33 29 25 23 21 20 22 23 23 25 26 25 26 28
21 21 22 22 22 22 21 29 26 24 24 23 25 20 17 23 20 19 20 18 21 27 29 31 32 31 31 31 30 30 23 21 20 20 22 23 24 24 24 24 25 26 27 29

GFSNW_sfc_30mbdewp_255.txt.gz
Dewpoint
44 41 38 41 43 44 37 30 16 37 38 28 28 25 24 22 20 21 14 15 14 14 14 15 17 14 16 21 20 16 21 22 17 12 18 17 20 17 17 20 17 19 20 18
43 42 40 41 43 41 34 27 32 34 34 16 22 26 24 26 17 16 16 15 16 15 14 14 18 17 22 21 20 18 18 20 11 2 8 14 14 15 17 20 24 20 13 18
43 42 41 43 42 41 32 31 28 31 33 28 17 21 23 22 21 17 16 16 16 16 16 18 17 18 21 21 20 24 22 19 14 6 11 15 11 14 19 18 15 19 21 23
44 43 41 42 42 42 34 32 30 30 28 28 25 23 19 19 19 18 18 15 15 15 14 18 18 20 19 19 22 20 18 12 16 16 18 16 14 17 19 16 15 18 21 20
44 44 41 42 42 43 35 29 30 28 26 27 25 25 22 19 20 19 17 15 16 17 15 16 15 18 18 16 21 18 21 13 15 11 14 13 16 17 17 19 20 20 18 17
41 44 42 41 42 42 36 32 33 28 25 27 24 21 24 22 20 22 20 18 18 17 17 19 18 20 20 19 18 18 18 16 15 5 12 12 13 14 15 16 17 18 17 17
40 41 43 41 42 42 34 31 32 28 21 25 25 23 22 25 22 19 22 20 17 19 23 22 20 18 19 21 21 20 18 17 15 10 9 8 12 15 17 15 16 16 15 16
39 40 44 42 42 42 36 34 31 28 20 24 24 24 25 25 26 21 21 21 21 23 21 19 15 9 14 14 18 21 20 18 12 11 11 10 17 19 18 17 15 17 16 19
36 39 39 42 41 42 39 36 34 28 22 22 24 23 26 23 25 25 23 25 26 23 20 17 11 -1 10 10 19 23 20 18 15 14 10 -1 14 18 20 21 14 20 19 21
36 38 38 43 41 40 40 37 37 30 25 25 27 24 25 24 24 24 23 24 23 23 19 17 14 9 16 13 12 18 19 16 14 12 13 12 14 18 21 12 9 18 20 23
36 37 39 42 41 40 40 38 37 33 27 27 29 27 25 24 24 22 24 22 23 21 19 19 16 15 17 17 16 15 14 14 14 14 12 8 19 18 13 15 19 20 24 26
33 38 37 39 40 40 40 37 38 36 31 28 33 32 29 26 25 25 26 23 23 23 20 19 19 18 21 20 13 20 14 15 17 16 14 18 21 18 18 20 20 24 26 30
33 35 38 38 41 39 39 38 38 35 33 31 31 29 33 33 29 29 24 26 26 23 24 21 22 20 22 18 18 17 18 19 17 16 16 18 21 22 20 22 25 27 31 29
33 36 37 39 41 39 40 37 36 34 32 26 26 29 30 33 31 30 29 29 30 28 27 23 22 17 21 19 18 17 17 19 17 18 19 19 19 20 20 24 29 30 30 30
33 36 37 38 40 39 41 39 36 34 27 24 23 27 27 30 32 30 31 30 29 28 25 24 21 23 22 22 23 20 18 16 13 11 16 16 20 22 25 25 30 30 29 29
35 36 36 42 39 40 38 32 36 34 28 22 18 24 27 31 32 30 30 29 28 28 27 26 27 28 24 20 19 20 22 21 19 16 20 21 22 23 25 28 30 30 30 30
35 36 36 41 39 39 34 32 36 34 30 21 18 22 27 31 30 30 30 29 28 27 26 25 25 26 25 21 18 18 21 22 23 22 22 21 23 22 29 29 30 31 30 30
35 36 40 40 40 39 35 36 36 33 28 22 18 22 27 30 27 28 30 29 30 28 26 26 24 25 25 21 20 19 18 21 23 23 23 23 28 29 30 31 30 28 26 28
36 38 41 39 34 32 34 37 33 31 27 20 20 20 21 29 28 29 29 30 25 28 26 26 24 23 21 19 19 22 23 21 21 22 25 25 24 27 30 30 27 24 26 27
34 39 33 28 32 38 35 32 31 30 28 24 18 24 24 27 27 25 26 26 23 21 23 26 24 20 22 22 23 22 22 23 24 24 24 24 25 28 29 27 26 27 27 28
33 30 29 35 39 33 30 25 25 25 22 23 21 25 24 28 22 24 25 23 22 18 20 21 19 18 20 22 22 22 24 23 24 27 26 26 27 28 27 27 28 29 29 29
33 34 35 33 29 26 22 21 23 20 18 23 21 25 27 27 26 23 24 21 22 15 24 21 17 20 24 29 31 29 24 24 24 29 28 28 28 28 27 28 28 29 29 29
30 29 28 26 25 17 15 14 17 18 22 23 24 26 28 29 28 25 24 21 19 24 20 17 18 25 31 30 28 28 27 25 28 30 29 29 30 30 30 28 28 27 26 26
27 24 19 19 17 14 15 15 17 19 22 21 25 26 27 28 25 25 21 23 22 18 15 16 22 29 30 30 30 28 28 29 30 30 30 30 28 26 26 26 26 25 26 27
20 17 14 15 19 19 18 22 23 24 22 24 24 26 26 24 22 23 21 20 17 18 17 19 29 32 31 31 30 30 30 30 30 31 29 25 23 23 24 24 26 26 25 26
22 19 18 20 18 19 21 24 23 23 23 24 25 22 21 20 20 20 17 16 15 17 22 32 33 32 32 31 32 32 32 30 26 23 22 23 23 23 24 25 24 23 24 25
21 20 22 21 19 18 24 24 23 23 23 20 22 17 16 22 18 18 19 18 19 27 30 33 33 32 32 33 33 31 26 23 21 22 23 23 24 24 23 21 22 24 24 24

GFSNW_sfc_30mbdewp_261.txt.gz
Dewpoint
43 46 44 43 43 44 41 31 25 40 37 23 26 30 20 14 13 13 12 12 8 8 10 10 13 11 14 17 14 13 15 16 12 8 12 9 13 14 18 23 21 21 23 24
42 44 45 42 43 43 33 28 26 38 33 25 30 29 21 19 13 14 13 11 12 12 12 14 14 13 20 19 16 15 16 21 14 12 14 13 9 13 15 20 24 21 21 24
38 42 42 44 42 42 38 28 29 34 33 27 24 21 20 16 18 14 14 13 13 14 14 18 17 15 21 20 18 17 19 15 13 10 9 8 6 9 13 14 19 15 14 15
37 39 41 46 42 43 37 35 29 29 27 28 23 20 15 13 17 17 15 14 14 14 17 16 16 16 20 21 25 17 21 16 11 11 8 8 7 9 11 11 13 13 15 12
34 36 41 43 44 43 36 33 30 24 21 25 25 20 17 13 14 15 15 15 14 14 17 17 16 16 19 18 18 19 20 19 13 14 9 7 10 12 12 12 11 12 11 12
34 35 37 38 43 42 37 34 28 27 25 25 23 25 17 13 13 17 16 15 15 14 15 16 17 19 19 18 19 19 21 22 15 18 9 8 13 14 12 13 13 13 11 15
33 34 35 37 41 43 37 35 29 26 27 20 25 23 20 16 14 18 17 17 16 17 21 22 22 21 20 19 18 19 20 17 18 21 11 14 17 13 14 13 13 12 12 11
32 33 34 34 40 40 39 38 31 27 26 23 19 22 22 19 17 18 18 18 19 23 21 22 23 23 19 23 22 21 19 17 23 20 14 13 9 11 12 12 12 13 13 13
30 31 33 34 35 39 39 41 36 28 28 25 20 20 22 23 19 20 21 26 26 22 19 25 21 20 18 18 17 18 18 18 19 22 18 13 11 10 13 15 13 16 14 14
30 30 32 33 34 40 38 37 41 34 30 25 22 21 22 21 21 22 25 25 24 23 26 26 23 15 14 14 16 16 16 21 21 21 17 14 11 14 17 13 15 15 16 15
31 29 32 32 33 35 39 34 40 36 32 26 26 23 22 21 23 27 26 25 26 25 25 23 24 22 12 11 13 16 16 18 19 20 18 16 13 17 14 16 21 17 16 16
30 30 31 32 33 34 38 32 36 41 33 30 28 28 27 30 23 26 28 24 24 26 25 23 24 22 20 14 12 16 14 18 20 19 19 19 16 18 19 22 19 17 17 17
31 30 32 32 33 35 38 34 36 40 36 33 29 29 32 33 33 31 30 26 26 25 26 28 28 23 21 16 14 15 15 17 17 19 17 19 16 17 19 19 16 17 19 22
29 31 32 33 33 35 37 33 35 40 36 31 28 28 28 31 33 34 31 28 30 27 28 33 30 24 18 17 17 15 16 16 16 16 15 15 16 16 17 18 19 19 21 25
30 32 32 33 33 34 38 36 35 37 31 28 25 27 28 33 32 30 32 32 30 29 32 33 28 21 22 23 20 17 17 17 18 17 16 17 17 17 18 19 20 20 22 26
31 31 32 33 33 34 35 30 35 36 34 31 28 30 29 31 30 29 30 30 29 31 33 27 21 24 22 26 18 16 14 16 18 16 17 17 19 20 18 18 20 20 25 22
30 31 31 33 33 37 31 30 36 41 38 30 28 29 29 30 29 28 29 30 32 34 33 30 24 24 25 27 19 14 16 16 17 17 17 18 18 19 21 19 21 28 25 20
28 29 32 33 34 36 32 34 36 37 35 29 24 27 28 31 32 32 33 33 34 34 32 29 25 24 26 25 22 21 17 15 16 18 19 19 20 19 20 22 25 27 20 21
27 31 32 33 34 30 32 35 37 40 35 27 24 19 21 34 33 31 33 31 29 30 30 27 25 26 24 23 22 18 17 15 15 17 18 18 17 19 22 23 26 21 16 22
31 33 31 27 31 35 39 37 35 33 33 27 18 17 23 29 28 27 26 26 22 22 22 25 24 22 21 21 20 18 17 17 17 17 18 18 19 19 25 26 23 15 17 22
32 30 29 31 36 33 31 27 28 28 27 27 19 21 22 26 22 24 22 23 21 16 19 20 19 14 18 20 19 18 18 19 18 18 19 20 21 23 26 27 23 19 24 27
33 33 35 36 32 29 27 25 27 24 23 20 20 24 25 23 28 22 25 18 18 16 22 20 15 15 17 18 18 19 19 19 19 20 20 21 21 23 25 28 25 25 27 30
33 31 29 28 28 21 20 18 23 23 18 19 22 25 25 27 25 22 20 18 17 22 21 17 14 15 20 19 22 19 20 20 21 21 24 26 23 23 26 27 32 29 29 30
27 23 22 23 21 23 20 20 18 18 19 22 27 24 21 23 22 21 19 18 20 17 15 13 19 20 24 22 27 22 21 21 23 26 26 26 31 31 31 31 29 29 28 29
25 28 21 23 20 16 19 18 20 19 23 25 24 21 20 21 23 20 20 19 16 15 10 15 23 24 28 28 30 27 22 26 27 31 34 31 28 27 28 30 32 29 27 27
29 27 23 22 25 27 27 25 21 24 26 25 22 25 25 22 20 15 18 14 11 13 17 26 29 27 29 29 30 31 28 24 27 34 31 27 29 29 29 29 28 26 27 25
25 25 25 25 26 28 27 24 25 27 26 24 24 23 18 16 14 12 11 11 13 25 30 31 30 29 30 31 31 30 29 31 32 27 25 25 26 27 26 25 26 26 29 27

GFSNW_sfc_30mbdewp_264.txt.gz
Dewpoint
38 41 46 45 43 43 41 32 30 41 37 23 28 30 28 21 10 11 9 13 11 7 9 7 11 12 14 15 13 13 16 17 13 9 10 7 12 14 17 22 24 23 22 26
35 37 42 45 44 43 34 30 31 40 34 21 29 27 25 25 14 11 12 12 12 10 11 11 12 13 21 18 15 16 15 22 15 13 14 12 9 13 14 18 25 24 19 25
36 36 38 42 44 43 38 31 29 35 32 24 21 24 25 26 18 14 12 12 12 13 12 17 16 17 21 18 18 18 18 19 18 15 11 13 8 9 11 15 17 20 18 13
35 35 38 39 42 44 38 35 33 32 29 28 24 23 21 21 17 15 14 13 12 13 17 17 16 17 21 19 23 13 23 19 14 13 9 7 4 6 7 10 15 12 16 11
35 35 35 39 41 43 39 34 34 27 24 27 24 25 25 16 16 15 14 14 14 15 17 18 18 17 20 20 22 17 21 20 16 14 12 6 5 6 7 9 9 8 11 10
33 35 35 35 39 42 38 37 32 29 30 23 23 25 23 21 15 16 16 15 17 14 16 18 17 18 21 20 20 19 23 23 16 20 10 8 10 9 9 10 11 12 11 15
31 33 34 35 36 40 39 38 35 28 26 28 25 21 22 20 18 18 17 17 17 18 23 25 26 22 20 20 20 21 21 21 21 24 16 12 15 14 13 11 13 12 12 12
30 31 33 34 35 38 38 36 37 32 26 24 26 23 21 22 18 16 18 18 18 25 24 24 22 23 19 21 22 19 21 21 24 22 14 13 12 13 11 11 12 12 11 12
31 31 31 33 34 35 39 36 38 35 32 26 21 23 23 23 22 20 19 22 27 26 26 27 20 19 16 18 19 21 20 20 23 23 19 16 12 10 12 12 11 13 13 13
32 32 31 32 33 35 38 36 38 35 33 30 25 23 25 23 23 24 21 26 27 27 28 28 24 15 16 15 14 18 20 22 22 22 19 17 13 11 13 12 15 16 16 14
31 33 33 32 32 34 37 35 38 33 34 32 30 26 25 25 25 26 27 26 25 26 26 26 25 23 18 15 15 16 18 20 20 22 20 16 18 13 13 17 20 19 17 16
32 33 32 30 31 33 35 33 37 38 30 36 33 30 29 28 27 28 29 26 26 28 28 27 27 24 24 15 15 18 16 21 22 21 21 21 17 17 19 24 20 18 17 17
33 33 33 29 31 33 34 36 35 36 31 33 35 29 31 31 34 35 32 29 28 27 29 29 29 24 22 20 16 19 17 20 20 21 20 20 18 18 19 22 20 18 19 19
36 33 31 29 31 32 34 35 36 35 31 30 32 32 31 32 33 32 37 34 31 29 29 33 33 28 24 23 17 18 19 19 19 19 20 17 20 17 18 20 18 16 19 20
36 32 29 28 31 33 34 37 36 38 31 29 29 32 29 29 30 32 35 34 32 30 31 33 31 29 24 24 25 20 19 19 19 21 21 21 18 19 17 19 19 18 19 21
33 31 27 30 32 34 34 30 36 37 34 28 29 31 28 31 31 30 33 34 34 33 32 33 29 26 26 27 22 21 20 20 21 19 20 21 21 20 19 18 19 20 21 22
31 30 29 31 33 35 31 27 35 37 36 29 30 31 30 30 30 30 30 32 33 31 33 31 28 24 27 29 24 16 17 17 18 20 21 18 18 20 21 20 19 22 21 24
31 30 31 32 33 34 34 34 35 38 33 32 29 29 30 30 30 29 30 30 31 32 33 33 29 27 29 25 23 24 19 16 16 17 18 19 19 19 19 20 17 21 24 22
30 30 32 33 33 31 31 34 34 37 32 27 30 24 25 30 29 34 33 33 30 32 30 30 28 28 26 28 24 22 23 22 16 16 17 17 18 20 20 21 20 26 26 21
30 31 31 26 32 32 32 32 31 31 29 29 28 23 27 32 29 29 28 30 25 25 26 28 27 25 25 24 22 23 24 21 20 18 17 19 19 19 19 21 22 26 23 20
29 29 26 28 32 31 29 25 25 28 26 31 29 25 27 30 24 27 27 26 24 23 21 20 19 18 23 25 24 24 21 19 18 18 20 21 21 20 21 25 26 26 19 23
30 30 29 34 30 26 22 19 26 26 23 30 25 26 27 27 26 22 23 19 19 13 23 19 14 17 18 21 23 24 24 20 19 18 19 21 21 22 24 27 27 23 29 32
30 26 25 23 25 19 18 16 20 25 29 26 25 25 26 27 29 24 21 18 19 23 25 19 15 17 18 19 20 23 24 22 21 20 20 23 23 24 28 30 33 31 30 30
23 22 19 16 19 18 23 22 21 24 25 26 25 25 22 26 25 25 20 20 21 19 17 14 17 16 18 21 22 21 23 23 22 22 23 25 30 32 33 31 31 30 28 32
21 20 14 17 23 23 26 27 23 24 26 26 25 23 22 24 25 21 20 21 19 14 11 17 22 23 25 23 25 24 23 25 24 29 31 31 31 29 28 30 30 28 29 29
25 24 23 26 24 24 26 23 24 27 28 26 23 24 23 22 19 19 19 14 10 11 18 28 26 27 26 28 29 25 27 26 33 32 31 30 29 27 29 31 28 27 26 24
20 23 28 29 24 26 24 24 26 28 25 22 21 21 18 19 17 14 14 12 15 25 32 33 30 30 31 31 32 28 27 34 34 32 30 29 30 30 29 24 25 27 27 24